Location: Newark
(55.7816°N, 8.2389°E)
Time: 22:23:07
(UTC+00:00)

LilacSat-2 - Pass Details

Date: 27 February 2020
Orbit: 514 x 534 km, 97.5° (Epoch: 06 April)

Event Time Altitude Azimuth Distance (km) Brightness Sun altitude
Rises 05:05:06 0° 18° (NNE) 2,659 ? -11.9°
Reaches altitude 10° 05:07:17 10° 25° (NNE) 1,769 ? -11.6°
Maximum altitude 05:10:57 44° 99° (E) 740 ? -11.1°
Drops below altitude 10° 05:14:36 10° 172° (S) 1,765 ? -10.6°
Sets 05:16:46 0° 179° (S) 2,653 ? -10.3°
